Location: DAV
(33.5613°N, 82.7640°W)
Time: 22:58:48
(UTC-05:00)

Envisat - Visible Passes

Search period start: 21 January 2018 00:00
Search period end: 31 January 2018 00:00
Orbit: 764 x 766 km, 98.2° (Epoch: 21 January)

Date Brightness Start Highest point End Pass type
(mag) Time Alt. Az. Time Alt. Az. Time Alt. Az.
21 Jan 5.3 19:51:21 11° N 19:51:21 11° N 19:51:37 10° N visible
22 Jan 5.1 19:13:56 10° NNE 19:13:56 10° NNE 19:13:57 10° NNE visible
23 Jan 5.2 20:16:42 14° N 20:16:42 14° N 20:17:23 10° N visible
24 Jan 4.9 19:39:17 15° NNE 19:39:17 15° NNE 19:40:19 10° N visible
25 Jan 5.0 19:01:50 11° NE 19:01:50 11° NE 19:02:16 10° NNE visible
25 Jan 5.4 20:42:02 15° NNW 20:42:02 15° NNW 20:42:50 10° NNW visible
26 Jan 4.7 20:04:35 21° N 20:04:35 21° N 20:06:13 10° N visible
27 Jan 4.5 19:27:07 19° NNE 19:27:07 19° NNE 19:28:56 10° NNE visible
27 Jan 5.7 21:07:19 13° NW 21:07:19 13° NW 21:07:53 10° NW visible
28 Jan 4.9 18:49:40 11° NE 18:49:40 11° NE 18:50:14 10° NE visible
28 Jan 4.7 20:29:50 24° NNW 20:29:50 24° NNW 20:31:48 10° NNW visible
29 Jan 4.1 19:52:23 29° NNE 19:52:23 29° NNE 19:55:00 10° N visible
30 Jan 4.3 19:14:54 20° NE 19:14:54 20° NE 19:17:27 10° NNE visible
30 Jan 5.1 20:55:05 21° NW 20:55:05 21° NW 20:57:02 10° NNW visible
